Flag for Australia Weather past 2 weeks in Mackay, Queensland, Australia

Now
81 °F

Warm.


Feels Like: 85 °F
Forecast: 78 / 85 °F
Wind: 9 mph from Southeast

Location: Mackay Mo

Current Time: Mar 2, 2015 at 10:58:31 PM

Latest Report: Mar 2, 2015 at 10:00 PM


Visibility: N/A

Pressure: 29.86 "Hg

Humidity: 72%

Dew point: 71 °F

Location of MackayLocation

Historic Weather in Mackay — Graph

°F

Mackay temperature yesterday

Maximum temperature yesterday: 86 °F (at 3:00 PM)
Minimum temperature yesterday: 73 °F (at 6:00 AM)
Average temperature yesterday: 80 °F

Past Weeks' High & Low Weather Summary

 TemperatureHumidityPressure
High92 °F (Feb 22, 12:00 PM)98% (Feb 19, 1:00 AM)29.91 "Hg (Feb 19, 1:00 AM)
Low73 °F (Feb 18, 6:00 AM)59% (Feb 27, 12:00 PM)29.54 "Hg (Feb 20, 4:00 AM)
Average81 °F80%29.75 "Hg
* Reported Feb 15 9:00 PM — Mar 2 9:00 PM, Mackay, Weather by CustomWeather, © 2015

Note: Actual official high and low records may vary slightly from our data, if they occured in-between our weather recording intervals... More about our weather records

Advertising

Mackay weather history for previous 24 hours

 ConditionsComfort  
Time TempWeatherWind HumidityBarometerVisibility
9:00 PM
Mon, Mar 2
81 °FPassing clouds.8 mph75%29.85 "HgN/A
7:00 PM81 °FWarm.9 mph74%29.80 "HgN/A
6:00 PM82 °FWarm.8 mph72%29.79 "HgN/A
4:00 PM84 °FWarm.9 mph66%29.76 "HgN/A
3:00 PM85 °FWarm.9 mph66%29.77 "HgN/A
1:00 PM85 °FWarm.8 mph65%29.80 "HgN/A
12:00 PM86 °FHaze.8 mph66%29.82 "Hg12 mi
10:00 AM84 °FWarm.7 mph68%29.83 "HgN/A
9:00 AM84 °FHaze.5 mph70%29.83 "Hg12 mi
7:00 AM76 °FMild.6 mph91%29.81 "HgN/A
6:00 AM74 °FHaze.6 mph93%29.78 "Hg12 mi
4:00 AM76 °FMild.1 mph89%29.75 "HgN/A
3:00 AM76 °FMild.3 mph85%29.76 "HgN/A
1:00 AM78 °FWarm.5 mph84%29.80 "HgN/A
12:00 AM79 °FPassing clouds.5 mph82%29.81 "HgN/A
10:00 PM
Sun, Mar 1
79 °FWarm.5 mph82%29.81 "HgN/A
Weather by CustomWeather, © 2015

See weather overviewHow to use our weather pages